GFSMW_850_spd_057.txt.gz
Wind_Speed
34 31 32 30 29 27 25 25 24 23 21 18 18 16 14 13 11 10 8 8 7 6 9 5 7 8 3 10 7 7 7 5 3 5 6 2 3 2 2 3 4 4 3
34 33 33 32 31 30 28 28 27 25 25 20 19 16 15 12 11 10 9 9 9 8 6 7 6 8 4 5 7 7 8 4 5 7 6 5 5 4 2 2 2 3 1
36 36 35 35 33 32 31 31 31 29 27 21 20 17 16 13 13 13 10 10 10 9 9 7 9 9 9 6 8 7 6 4 6 8 3 3 5 7 1 2 2 1 2
34 36 35 37 36 35 32 31 32 32 29 29 22 22 19 18 15 14 11 12 12 10 8 8 7 8 6 6 6 6 8 5 6 3 3 2 3 3 1 2 3 3 2
36 38 39 38 37 35 34 32 33 34 30 33 26 25 22 18 15 14 15 13 13 12 10 9 9 7 8 8 7 8 10 8 5 6 6 3 2 3 5 5 5 1 2
34 36 37 36 36 36 34 34 36 36 36 34 34 29 26 22 18 17 15 14 12 12 13 11 11 9 7 7 7 6 11 9 9 5 7 7 6 6 3 1 3 3 0
34 35 38 40 39 39 39 37 38 39 40 36 36 35 31 29 21 19 18 16 15 14 16 15 12 8 7 7 9 9 9 9 8 11 8 5 4 1 2 1 2 1 1
34 36 39 40 42 41 42 42 41 41 41 41 40 40 38 27 26 24 19 19 16 15 14 14 14 12 11 9 9 7 6 8 9 10 13 7 7 6 6 5 3 5 5
34 35 37 39 41 42 45 47 44 45 45 41 42 43 41 37 28 27 26 20 20 16 17 14 13 15 13 12 12 9 9 8 9 10 11 11 7 7 8 7 7 6 7
34 33 35 37 39 41 42 43 44 45 44 43 44 44 43 41 36 31 28 25 21 23 14 18 17 16 17 16 16 12 13 12 11 9 12 11 9 9 10 9 8 8 9
25 28 33 36 38 37 38 41 43 43 42 43 44 43 41 39 41 36 36 31 27 22 25 20 18 18 18 18 19 17 13 14 14 14 12 12 13 10 9 10 10 10 10
27 30 30 33 36 38 38 40 41 41 43 43 45 46 43 39 38 44 38 33 33 29 27 24 22 19 19 19 20 19 17 17 15 15 15 15 13 16 15 14 14 13 14
32 29 30 30 34 37 38 39 40 41 39 40 43 43 43 44 42 40 43 39 36 33 28 27 26 23 21 23 22 21 20 20 20 19 18 18 17 19 16 17 15 15 17
31 33 30 29 31 35 40 40 40 39 38 37 40 44 46 46 43 42 41 42 40 37 34 31 29 27 24 24 24 23 23 22 22 21 20 20 21 22 21 20 21 20 20
19 31 28 30 31 32 37 41 38 40 40 42 42 47 49 47 44 44 43 44 41 40 37 34 32 30 26 24 26 26 25 24 24 23 22 22 23 23 24 20 20 20 19
8 11 19 22 25 29 33 37 43 41 42 43 48 44 43 45 47 46 47 44 43 42 40 38 36 34 29 27 28 27 26 27 26 26 25 24 24 25 26 29 28 27 27
10 9 10 15 22 28 28 33 41 42 40 44 42 43 43 46 48 47 46 47 45 43 43 40 39 38 37 32 31 30 31 26 28 28 26 24 21 23 25 25 25 27 29
13 13 13 14 17 21 25 29 31 41 43 44 42 44 43 45 46 46 48 47 45 44 44 43 42 41 40 37 35 34 33 32 32 28 27 28 27 27 23 24 24 27 28
14 15 15 16 18 19 23 23 31 35 43 43 47 46 48 44 45 48 49 48 46 46 45 44 43 43 42 38 36 35 35 34 35 34 34 34 34 33 31 32 34 35 35
14 17 19 20 21 24 24 27 31 36 42 47 50 48 46 45 46 47 47 49 48 47 43 44 44 43 42 40 39 36 35 31 33 34 36 37 38 38 37 37 37 39 39
14 18 19 23 23 23 25 31 34 39 46 41 40 42 45 45 43 41 41 43 47 37 44 38 41 43 41 41 39 38 38 33 29 29 29 29 30 30 30 33 35 39 38
15 10 15 17 19 22 27 33 37 41 37 36 39 40 41 40 37 39 39 38 37 39 35 37 33 32 39 38 39 38 38 37 36 33 26 25 27 29 30 31 31 30 29
15 12 9 6 6 10 17 27 33 32 34 36 38 37 37 38 35 37 37 33 34 31 33 29 30 29 27 28 33 36 37 36 37 37 27 30 30 29 30 32 31 28 27
22 20 14 12 12 2 8 14 22 26 29 33 34 35 36 37 37 32 30 29 29 29 27 29 27 26 26 27 25 28 32 33 35 36 37 37 36 35 28 26 28 28 28
24 25 22 22 19 13 9 10 15 24 27 30 32 34 33 35 37 30 28 29 26 27 27 26 24 24 25 26 27 25 26 28 35 35 34 34 34 32 26 25 26 26 24
24 24 27 21 19 16 17 10 14 17 25 28 31 31 31 32 31 31 33 31 31 30 28 26 26 19 24 24 26 29 30 24 19 20 24 22 22 22 20 20 21 25 26

GFSMW_850_spd_060.txt.gz
Wind_Speed
31 33 31 31 30 30 28 26 24 25 24 20 19 17 15 13 13 16 10 6 3 4 8 8 9 7 9 9 7 5 7 6 9 7 6 3 7 5 4 3 3 5 3
36 35 34 33 31 32 30 31 28 26 25 19 20 17 12 13 17 14 8 5 5 3 6 6 7 3 7 9 4 10 9 5 6 3 6 4 4 9 5 5 1 4 2
39 39 37 36 35 35 33 34 32 28 26 23 23 19 18 15 10 18 13 8 9 5 9 6 9 10 6 5 9 11 3 3 3 2 5 4 3 6 3 2 6 2 4
39 39 38 37 38 37 36 33 36 30 30 27 24 22 19 16 18 17 11 9 10 7 6 5 10 10 10 8 4 7 7 8 6 3 1 4 1 1 3 5 7 6 4
41 42 43 41 39 38 39 35 35 35 31 33 26 26 22 21 17 15 16 18 12 11 10 8 7 9 8 6 9 8 8 5 4 5 4 1 1 1 3 1 9 3 2
41 43 43 42 39 38 39 37 37 39 37 35 31 29 29 22 16 16 18 18 11 13 14 12 8 7 10 10 9 8 11 11 9 4 11 4 6 5 6 3 6 6 3
40 42 43 43 43 42 42 42 41 39 40 38 37 34 31 27 24 19 18 15 18 12 14 16 12 9 8 10 8 7 11 14 13 9 10 5 4 4 4 1 6 1 3
39 41 46 46 48 46 46 45 45 42 41 42 40 39 35 32 29 19 24 17 16 21 17 18 12 10 10 9 9 7 10 8 12 16 13 6 3 0 2 3 5 6 5
9 39 43 46 46 47 48 48 48 45 42 44 43 43 41 36 34 28 23 24 22 14 17 17 13 13 13 10 10 7 7 11 11 9 16 13 10 6 6 7 7 8 12
37 41 41 44 45 48 46 46 45 47 45 41 45 44 44 42 37 33 28 25 25 21 15 18 17 15 16 15 14 9 9 11 9 9 9 9 13 7 7 11 10 9 11
29 35 24 40 44 44 45 46 46 43 46 44 43 46 45 44 41 37 35 30 28 26 28 18 19 19 17 19 18 15 16 16 12 15 11 14 10 15 10 10 9 11 12
42 33 36 38 43 44 45 46 46 46 46 46 43 44 45 44 44 44 40 37 34 30 29 30 21 21 21 20 22 20 21 15 18 13 20 15 14 13 17 16 15 11 13
50 44 44 47 49 46 45 45 47 47 43 43 43 43 44 44 43 45 46 41 40 37 35 32 30 30 25 21 22 21 19 22 20 17 15 17 18 19 18 14 15 17 14
46 40 44 37 49 50 47 45 44 44 44 42 44 45 46 47 46 44 42 44 41 42 40 37 33 30 28 24 23 23 23 21 26 24 23 23 22 21 21 20 20 22 21
15 26 25 23 43 46 47 46 42 43 43 44 45 46 47 46 43 44 44 41 48 44 41 38 36 34 31 29 27 25 26 24 23 25 26 26 25 25 24 24 22 19 18
3 8 7 27 30 26 44 45 45 43 44 44 46 42 43 43 44 44 43 43 43 45 44 41 38 37 36 32 26 25 26 27 27 25 26 27 24 24 22 24 27 26 25
9 10 11 11 14 27 16 42 44 43 42 45 43 43 43 45 46 45 44 43 44 44 44 42 40 40 39 36 29 28 27 27 27 27 27 26 25 24 24 22 21 22 22
22 14 14 17 9 5 38 33 38 41 41 43 42 43 45 46 47 47 46 45 43 45 44 44 42 41 41 39 35 32 31 31 30 29 28 28 26 24 25 24 24 24 24
34 22 15 16 19 18 13 6 33 39 44 41 45 44 46 46 47 48 48 47 45 44 45 44 42 43 43 41 37 34 36 36 36 34 33 33 31 30 26 28 32 31 30
24 29 23 18 17 20 24 21 15 32 42 38 45 45 43 47 48 49 47 46 46 48 46 45 43 43 43 41 40 37 35 40 40 38 37 36 35 35 34 34 34 35 33
21 26 22 23 19 20 23 26 30 25 35 40 37 39 43 45 45 44 44 44 45 44 44 42 42 43 43 42 40 38 38 39 38 37 37 35 32 29 27 27 29 31 25
22 20 20 16 17 18 22 27 31 37 29 32 40 41 42 43 44 43 43 43 42 43 39 41 39 40 43 42 40 38 37 38 40 39 35 31 26 23 22 22 25 24 22
17 17 11 9 9 14 11 16 32 30 36 27 37 40 40 43 41 43 43 43 42 42 42 38 39 36 35 39 37 36 37 36 38 38 37 36 29 24 23 24 25 24 26
18 18 12 6 10 13 9 9 16 29 32 39 36 40 41 42 43 40 43 44 43 44 39 39 34 33 33 30 32 28 25 29 33 34 35 36 35 33 35 37 35 34 32
16 17 16 9 8 9 7 7 13 18 29 34 37 38 39 41 42 43 39 43 42 42 43 37 35 30 28 29 31 29 28 24 22 26 32 34 36 39 38 37 35 34 32
15 20 19 15 11 14 8 3 8 12 17 23 30 33 34 36 40 42 38 39 37 37 36 33 27 31 31 29 28 29 32 27 22 19 24 32 33 33 34 33 29 25 27

GFSMW_850_spd_063.txt.gz
Wind_Speed
32 35 38 38 35 31 30 26 26 23 28 24 25 26 18 14 13 12 6 4 8 8 7 9 12 11 11 11 10 10 7 11 10 10 8 4 2 3 4 3 2 2 3
33 40 36 39 39 35 32 29 30 27 25 25 28 23 18 17 13 14 9 8 7 8 10 11 14 5 11 13 11 10 10 10 7 8 2 1 5 5 4 3 1 1 3
35 42 38 37 41 39 36 32 33 30 25 24 28 22 16 17 15 17 12 7 7 7 11 11 12 11 9 12 10 11 10 9 7 4 2 4 2 7 6 3 4 6 4
39 46 41 40 42 42 38 33 35 31 28 25 31 26 23 21 20 16 13 11 9 8 11 9 10 10 8 7 8 18 10 3 6 4 3 2 5 4 6 7 7 4 4
45 46 46 44 39 41 41 36 35 35 31 28 33 30 25 19 20 15 15 13 10 7 9 9 11 11 10 10 9 14 10 10 8 7 6 3 5 3 2 1 9 5 6
44 45 48 43 42 41 42 39 36 41 36 32 34 33 30 26 22 19 20 18 15 12 8 8 6 9 13 11 12 11 12 12 12 6 6 9 5 2 6 9 9 8 2
40 44 46 43 42 43 46 44 41 40 41 37 36 36 34 31 23 23 21 19 22 15 11 15 11 8 9 8 9 11 13 13 11 9 8 6 5 1 3 4 7 1 7
19 40 48 48 47 47 49 49 47 42 42 42 41 37 37 35 30 20 20 18 14 16 13 9 10 9 9 10 8 10 12 14 15 14 11 8 7 4 1 1 3 3 2
29 21 48 51 51 48 50 51 49 46 42 43 42 42 37 38 36 30 25 21 18 15 19 16 13 12 9 12 10 8 11 13 15 17 17 14 10 8 4 4 6 6 8
28 13 11 38 49 53 49 50 50 47 43 43 44 46 43 39 39 35 30 29 26 24 15 23 21 16 11 14 12 10 12 11 10 11 17 19 14 12 9 6 9 9 9
44 22 31 27 38 42 45 50 52 49 47 43 43 46 48 44 39 40 36 31 32 29 22 18 23 18 14 14 14 13 13 10 9 10 11 14 13 18 15 12 12 10 12
47 55 56 49 40 36 44 51 53 53 51 47 44 44 47 48 45 42 41 38 34 31 28 24 21 21 18 16 19 17 16 18 15 15 14 16 13 14 19 17 14 14 14
46 51 48 45 43 35 38 48 53 56 53 50 47 46 45 48 50 47 44 43 38 36 32 24 27 25 24 20 19 19 18 22 21 17 17 19 20 18 16 20 22 21 19
38 50 44 31 33 50 38 47 49 52 51 51 50 48 47 46 47 48 47 45 43 40 39 37 34 33 33 29 23 21 20 19 25 22 20 19 19 21 20 19 19 18 20
16 30 45 42 28 49 44 39 50 51 50 48 50 50 46 44 43 44 46 46 47 44 41 41 41 38 34 31 28 26 24 22 22 25 26 24 23 23 22 22 22 21 21
37 25 28 41 34 41 46 33 47 51 52 49 50 47 45 43 43 43 43 42 44 48 45 44 43 42 40 35 31 28 28 26 24 23 23 25 25 23 22 21 21 22 25
16 25 34 11 29 22 19 36 33 43 51 53 52 50 46 44 42 43 42 42 41 42 48 45 44 44 43 40 34 30 29 28 27 26 24 23 24 24 25 24 24 22 21
26 24 29 20 16 10 26 35 41 32 33 44 51 51 48 45 43 41 44 42 41 41 43 47 46 45 44 41 37 33 30 29 27 26 25 24 23 23 22 22 22 23 23
26 26 26 25 29 20 19 25 25 35 33 30 51 52 50 47 46 44 42 42 41 42 41 42 44 44 42 40 38 35 34 34 33 31 30 29 28 25 24 24 26 29 30
28 28 28 25 27 19 12 12 27 41 39 37 47 51 49 49 48 46 44 42 42 42 41 42 42 42 42 40 38 37 37 37 38 37 36 35 34 31 30 31 30 32 30
27 28 25 26 23 13 9 11 23 30 29 26 44 49 49 50 49 47 46 45 44 42 44 43 43 43 40 38 37 36 38 39 39 40 39 37 36 34 33 33 35 35 23
26 25 25 25 24 21 21 14 12 25 22 23 27 44 45 47 49 48 48 47 45 45 44 45 45 44 42 39 36 36 37 38 40 41 37 37 33 30 28 24 20 18 17
21 23 25 22 21 22 25 27 23 23 23 22 26 27 46 45 45 47 49 48 46 46 45 45 45 45 43 41 38 35 35 35 38 38 37 37 35 31 25 22 21 21 25
17 16 18 17 20 20 21 24 27 26 26 26 27 30 36 47 44 47 47 48 48 48 46 45 44 43 42 40 40 38 36 34 33 34 36 37 37 37 35 33 32 32 29
16 14 14 15 15 18 17 17 23 24 23 26 29 31 34 43 48 48 47 48 50 49 48 46 43 41 41 42 39 38 36 32 31 28 32 38 39 39 39 40 37 33 30
10 15 15 18 15 19 18 17 15 20 18 19 25 31 33 40 49 48 48 45 46 46 45 41 42 42 41 37 34 33 34 30 25 28 32 31 33 35 36 36 35 36 34

GFSMW_850_spd_069.txt.gz
Wind_Speed
35 36 36 35 34 35 36 28 24 24 24 23 21 19 16 17 16 14 10 10 10 7 10 16 12 10 11 10 9 7 9 10 9 6 4 4 5 6 3 3 3 1 3
34 29 32 40 38 38 39 31 26 27 26 26 23 22 19 16 14 12 10 8 10 10 10 13 11 14 11 13 11 8 6 10 11 6 6 5 5 7 4 4 3 1 2
34 33 33 38 40 43 42 34 29 27 27 29 27 21 19 17 17 15 13 9 11 12 13 14 14 13 12 12 10 10 8 10 10 6 5 3 3 3 2 2 2 2 1
31 35 36 39 43 45 42 36 31 28 22 29 31 28 25 24 20 17 12 9 10 12 12 13 15 12 15 13 13 13 10 10 8 8 3 2 4 3 3 4 3 3 2
39 39 44 43 47 46 45 40 32 29 24 23 31 30 26 25 20 16 15 12 13 13 13 11 15 13 13 12 15 15 14 12 12 11 8 4 2 4 6 5 5 5 3
35 35 42 44 48 50 48 43 36 32 28 24 30 29 32 29 24 20 19 18 14 15 16 14 14 15 14 12 14 17 16 14 13 11 9 5 1 3 5 7 4 4 4
35 32 42 48 51 54 52 47 40 37 32 27 30 29 33 31 28 23 20 21 17 15 15 16 14 14 13 14 15 14 18 14 15 12 7 5 3 2 3 6 5 4 3
39 41 44 50 53 56 54 48 44 40 36 32 28 31 32 33 30 26 23 23 21 17 13 13 15 12 11 13 13 13 16 18 17 13 11 7 4 4 2 1 3 3 3
39 39 41 49 54 54 55 50 47 44 39 36 29 30 32 36 33 29 23 23 21 18 17 16 16 15 12 12 14 14 15 17 18 17 15 12 9 7 5 5 6 7 6
32 32 39 49 53 54 54 52 48 47 42 39 35 27 31 35 35 31 28 24 23 22 19 19 17 15 15 14 14 14 13 15 18 20 19 16 15 12 11 9 8 9 10
37 37 39 47 53 53 55 55 53 51 48 45 39 33 30 34 36 36 34 30 22 23 21 20 19 19 18 17 16 15 15 16 16 17 20 20 20 19 18 16 14 13 12
36 41 34 41 37 41 48 55 55 53 50 47 43 38 32 29 34 38 38 36 31 25 25 23 23 21 18 22 21 18 17 17 17 17 18 18 20 22 23 21 20 18 16
9 13 13 24 26 25 32 42 47 52 51 47 47 43 39 36 32 36 39 40 37 33 29 28 28 25 22 21 24 21 18 19 18 19 19 18 17 20 20 22 23 23 21
10 11 10 8 9 17 21 27 37 45 48 49 48 46 43 39 35 31 37 41 42 41 37 33 31 29 27 26 23 22 21 18 19 20 21 22 21 20 20 22 21 18 20
22 16 9 6 2 7 9 16 27 29 37 45 49 48 45 41 36 35 32 37 42 43 43 40 38 34 31 30 30 28 26 24 21 20 21 22 23 22 22 21 21 21 21
25 21 15 10 7 2 10 15 12 25 30 36 43 43 44 46 42 38 37 35 36 41 45 46 45 43 40 36 32 32 32 30 28 26 24 24 24 24 25 25 24 24 24
24 23 18 16 14 10 2 13 19 14 24 29 32 37 40 43 40 37 39 39 39 38 40 46 48 48 47 45 40 38 36 35 33 31 29 28 27 26 26 26 27 28 27
24 23 19 15 15 18 13 4 11 21 22 21 33 36 37 41 39 37 38 36 38 40 40 41 43 48 51 50 47 44 42 42 42 38 36 34 32 29 27 27 27 27 26
22 22 23 18 18 16 20 14 3 10 15 18 19 34 35 39 38 36 35 34 35 35 38 38 40 43 47 49 50 48 47 47 47 44 42 40 37 34 29 27 27 26 26
18 23 21 21 16 15 14 17 12 6 7 12 14 21 27 31 32 30 30 33 36 37 36 36 35 37 42 44 46 45 48 50 49 48 47 43 40 37 33 31 29 30 29
17 20 20 20 20 16 13 13 15 12 11 10 9 16 21 19 20 20 25 32 36 41 39 40 38 34 33 37 41 43 43 45 47 47 46 45 41 39 36 34 34 34 30
18 16 22 21 20 17 17 12 15 15 16 15 10 11 16 23 19 22 26 32 38 41 44 42 42 40 36 34 34 36 41 42 44 47 46 44 41 38 36 35 34 33 33
21 19 21 22 17 18 15 20 16 19 18 21 17 10 16 20 20 22 29 32 37 40 44 44 45 45 39 38 36 35 36 36 40 40 41 41 40 37 35 35 34 31 32
21 20 22 22 23 18 17 15 21 26 24 25 28 22 16 16 20 20 25 29 36 40 41 44 46 45 43 40 40 38 36 36 38 38 37 36 37 38 37 36 34 33 32
22 22 24 22 22 21 17 18 20 26 31 32 32 32 30 27 19 22 24 31 33 34 38 43 44 42 42 40 38 36 37 36 35 34 35 38 40 40 40 39 38 37 34
22 24 26 23 21 20 21 19 22 25 29 37 35 29 29 31 26 23 26 30 31 34 36 36 41 45 41 37 35 33 34 31 29 29 34 38 40 41 40 40 39 38 37

GFSMW_850_spd_072.txt.gz
Wind_Speed
35 35 36 32 32 31 30 29 26 26 24 23 20 18 15 13 12 10 7 7 7 6 10 12 11 12 10 7 4 3 4 4 2 1 0 4 4 4 4 5 5 3 3
30 34 39 36 35 32 31 30 28 27 26 23 22 18 17 13 13 11 9 7 9 8 5 12 10 9 10 9 6 3 3 6 4 1 5 6 5 5 5 4 2 2 3
33 34 38 40 38 37 35 33 31 28 25 23 23 21 19 15 14 14 12 8 7 9 8 10 9 10 9 9 8 7 3 5 5 3 4 5 5 8 5 3 2 1 1
37 35 40 40 42 38 36 35 32 31 26 26 26 25 22 20 16 13 9 9 8 9 11 10 12 11 10 10 9 8 5 5 4 5 5 5 7 5 7 6 3 1 0
34 40 42 40 37 40 38 35 35 33 29 27 28 27 25 20 16 15 13 12 9 10 11 12 13 12 10 11 11 11 10 8 6 7 7 6 6 6 10 7 5 3 2
35 35 41 41 37 35 41 38 36 35 33 28 30 31 28 24 21 19 17 15 12 11 12 12 11 12 10 10 10 13 13 13 11 10 8 6 3 5 8 9 7 6 5
37 37 38 44 41 40 40 42 40 38 36 32 27 28 29 28 24 22 18 17 15 13 13 13 12 12 12 12 10 10 12 13 12 10 9 4 4 3 4 7 7 7 7
35 38 36 41 43 42 40 42 45 41 38 36 28 24 29 27 28 26 21 18 17 14 11 10 12 12 11 11 12 12 12 15 14 12 11 7 4 3 3 5 6 8 8
30 34 38 36 41 42 43 44 47 45 41 37 31 26 27 28 29 28 24 21 19 16 15 15 11 11 11 9 10 12 11 12 14 14 14 11 9 6 6 6 7 9 10
25 34 34 36 37 41 42 40 47 47 43 40 34 30 26 29 27 29 28 26 21 19 17 17 16 13 14 12 10 10 12 12 13 15 16 14 13 12 10 10 10 11 12
22 30 35 32 33 36 40 42 46 49 47 44 40 35 30 28 29 31 31 28 23 21 19 17 16 16 15 14 13 10 11 13 12 13 16 17 16 15 15 15 14 15 17
7 18 26 28 25 32 38 41 45 48 48 46 43 38 33 30 30 32 33 32 29 25 20 20 18 18 17 17 18 16 14 13 14 13 15 16 16 17 18 19 19 18 19
21 10 6 18 20 25 31 34 36 42 45 47 46 44 40 35 33 32 33 33 32 30 27 24 23 21 20 19 18 18 19 17 15 15 15 16 16 17 17 18 18 19 20
23 22 16 11 7 15 17 24 28 32 38 41 43 44 44 42 37 34 32 33 34 34 33 31 27 26 24 23 22 20 20 19 17 15 17 17 18 18 17 17 18 19 21
29 23 19 15 8 6 9 16 18 21 27 36 38 40 41 42 43 42 38 34 33 36 37 36 34 32 30 28 26 24 22 21 20 18 17 17 17 18 19 20 20 20 21
27 26 22 18 14 6 3 8 14 22 25 28 30 29 33 39 40 42 42 40 38 35 37 40 39 39 39 36 31 28 26 25 25 26 23 22 20 19 18 20 22 23 24
23 24 24 21 18 15 7 7 13 16 22 26 27 30 31 33 33 35 39 41 40 39 38 36 39 42 42 41 39 36 34 32 30 29 28 26 24 21 21 21 22 23 24
21 21 21 21 18 15 14 11 6 13 18 22 29 30 28 29 28 28 33 36 37 39 40 39 37 37 40 43 44 42 41 40 38 35 33 32 30 27 25 25 25 26 26
18 18 19 18 19 17 14 14 11 7 11 19 22 25 29 34 34 32 31 32 32 33 33 37 37 37 38 38 39 42 46 46 45 42 40 38 36 33 30 30 31 30 29
18 20 19 18 17 17 15 11 10 8 5 6 11 16 24 31 33 31 31 31 29 29 28 30 31 31 31 33 35 38 40 44 47 47 47 44 41 37 35 35 34 35 32
21 19 21 21 20 18 17 14 10 8 9 5 4 6 17 22 26 28 30 28 28 25 25 27 28 29 29 28 29 31 36 39 41 44 45 45 43 41 39 38 37 36 33
26 23 22 24 22 18 19 17 15 14 8 8 5 3 7 16 21 20 19 22 26 27 28 30 30 28 27 29 30 30 31 31 36 39 39 39 39 37 36 35 34 33 33
30 26 28 25 25 22 20 23 19 17 18 12 11 8 7 8 11 18 28 30 28 32 32 35 32 31 28 27 28 28 30 29 32 32 33 34 35 35 35 36 34 32 33
35 31 31 32 29 27 25 24 24 23 20 20 18 16 18 17 14 15 19 24 24 29 34 35 35 30 30 27 27 26 26 28 29 31 30 30 32 33 34 34 33 33 34
35 34 33 35 35 29 28 25 27 27 25 23 21 21 20 22 21 20 19 20 27 25 33 37 34 27 29 30 29 25 21 22 25 27 30 32 35 37 38 38 37 36 35
36 36 36 34 37 32 28 27 27 27 27 27 26 24 23 23 25 28 28 23 25 32 30 33 35 30 26 24 26 27 21 15 13 19 27 31 34 37 37 38 38 37 36

GFSMW_850_spd_075.txt.gz
Wind_Speed
26 24 25 24 24 26 25 26 26 26 25 23 22 18 14 11 9 7 6 4 3 3 6 9 9 7 6 4 2 3 4 4 3 4 2 3 2 3 6 7 5 6 6
25 27 26 25 28 28 27 26 26 27 25 24 21 18 14 11 10 9 6 5 5 5 3 12 8 9 7 7 4 2 2 2 2 2 6 5 5 6 5 4 3 4 4
27 30 27 30 31 31 31 28 25 27 26 25 22 20 15 13 13 11 11 6 5 6 4 8 8 8 7 8 6 3 0 2 4 1 5 4 5 8 7 4 3 3 2
28 30 31 32 31 34 31 30 26 26 26 25 23 23 19 17 15 10 10 8 6 7 8 7 8 8 8 7 6 4 2 2 1 2 4 6 7 5 6 6 3 2 3
31 32 33 32 37 36 34 33 30 27 27 25 24 22 21 18 15 12 11 9 7 7 8 9 9 10 8 9 9 7 5 4 4 3 5 7 7 7 7 5 5 5 4
32 32 32 33 34 35 37 36 35 32 29 27 25 24 23 21 17 15 13 11 10 8 8 9 9 11 9 9 8 8 9 9 7 5 6 5 3 4 6 5 6 7 5
31 31 32 32 33 34 33 36 36 36 34 30 27 23 24 24 21 17 15 14 13 11 9 10 10 11 10 9 9 7 10 10 9 8 5 5 3 2 4 7 7 6 6
28 29 31 33 37 37 34 32 31 34 35 34 28 24 24 27 26 21 18 16 14 13 9 7 9 9 8 10 10 10 10 9 11 10 7 6 5 3 3 5 7 6 6
26 29 28 31 36 39 38 35 33 31 36 35 32 27 24 26 27 25 22 20 16 15 13 10 8 7 9 8 8 10 9 8 9 12 11 9 9 7 5 4 5 7 7
13 23 27 27 32 33 33 35 35 34 33 36 36 32 28 25 25 25 24 24 21 18 16 14 12 11 10 11 9 8 9 9 10 11 12 13 12 11 10 8 8 8 8
2 12 18 21 24 30 29 32 36 36 36 39 39 36 31 28 27 26 24 25 23 22 19 17 15 14 12 11 11 9 9 8 9 10 11 14 14 14 14 13 13 13 14
21 12 2 10 17 22 24 28 29 32 33 35 40 41 37 31 29 26 25 25 27 25 22 20 18 17 15 16 15 14 14 12 9 10 12 12 14 15 16 16 17 17 18
25 22 16 8 5 8 16 19 25 26 25 30 35 40 41 39 34 31 26 26 28 30 27 25 22 20 18 18 17 15 14 15 14 11 13 12 14 14 14 14 16 16 17
26 25 22 15 8 5 11 14 17 18 21 23 26 32 36 40 39 36 32 29 28 31 32 30 28 24 22 22 20 19 17 15 16 15 13 14 15 16 15 15 16 16 17
24 24 23 21 14 4 5 8 13 18 19 21 24 27 28 31 35 39 38 35 32 30 32 34 33 32 30 28 27 24 21 20 17 18 16 14 13 13 15 17 18 18 18
21 21 20 20 20 17 9 4 11 16 22 24 25 23 25 29 32 33 34 36 37 36 34 34 36 37 37 36 32 29 27 25 24 23 22 20 18 18 17 16 16 17 19
19 21 21 20 19 18 16 12 7 12 15 23 25 26 26 29 29 29 32 34 33 33 36 37 37 37 39 39 40 36 34 32 30 27 25 24 24 22 21 19 18 19 19
20 20 20 20 19 18 16 14 10 6 9 13 19 24 27 28 27 28 30 30 30 31 31 35 36 37 38 37 39 40 39 40 38 36 34 32 30 27 24 23 24 24 24
18 19 19 19 19 20 19 16 12 10 5 6 14 21 22 26 28 30 29 30 30 29 29 31 34 36 37 37 36 35 38 43 44 43 40 39 37 34 30 29 30 30 30
19 22 22 21 20 20 20 18 16 13 11 8 6 11 18 24 22 25 29 31 32 30 28 29 31 32 34 35 36 36 37 40 41 42 44 44 42 40 37 36 35 36 35
23 22 23 23 22 22 21 21 18 17 15 12 10 8 8 17 19 23 26 27 27 28 28 30 30 30 31 32 33 32 34 37 38 40 41 42 42 39 41 40 40 40 35
23 23 25 25 25 24 23 22 21 20 19 16 14 10 8 6 9 19 18 21 25 27 28 26 29 30 31 32 32 33 33 32 34 34 34 37 38 36 35 36 38 37 34
23 23 23 27 29 27 25 25 22 23 24 21 17 18 15 10 7 9 15 22 26 25 23 24 30 31 30 31 31 32 33 32 33 33 30 28 29 29 31 34 34 30 31
26 25 24 26 29 30 29 27 24 23 26 27 24 19 19 21 18 15 16 16 19 21 27 31 28 28 28 28 28 29 31 31 31 32 31 30 30 31 30 30 31 32 34
25 24 25 25 27 30 32 30 26 24 30 30 28 26 23 19 22 21 21 21 20 17 19 26 27 32 31 30 26 23 26 28 28 28 30 33 34 36 36 34 32 30 34
27 23 22 22 22 27 26 26 22 26 29 32 25 26 27 26 24 25 27 22 23 24 20 23 29 33 37 34 31 28 25 24 20 22 28 33 32 34 36 36 37 37 38

GFSMW_850_spd_078.txt.gz
Wind_Speed
25 21 18 16 16 17 17 18 17 17 19 16 13 11 8 8 7 6 6 5 4 3 5 6 6 5 4 4 4 5 4 3 2 3 2 2 2 2 1 1 1 1 2
26 23 21 18 18 19 18 19 19 21 20 16 14 11 10 8 7 6 6 6 5 4 4 8 6 7 4 4 5 5 4 4 3 4 1 3 6 5 3 2 1 0 0
29 26 24 22 20 20 21 20 21 21 23 16 16 13 10 9 8 8 6 5 4 6 4 9 8 7 7 5 4 3 3 4 2 5 5 5 7 1 4 3 1 1 1
25 27 26 25 23 22 21 20 21 20 22 21 16 14 10 8 8 7 8 6 4 6 6 8 8 8 7 7 5 4 3 6 3 2 3 7 4 6 5 4 2 3 3
26 27 28 27 25 23 21 21 22 21 20 22 18 15 14 9 7 7 9 9 7 6 6 9 9 9 7 7 7 5 4 3 3 1 1 3 3 4 3 6 5 5 4
25 27 27 28 28 25 24 22 23 25 24 22 21 20 14 14 11 10 8 7 6 5 6 7 9 10 8 8 8 8 7 7 6 3 2 1 1 3 3 2 4 4 4
27 27 28 30 28 27 25 23 23 27 26 25 23 21 20 16 15 12 10 9 9 7 9 7 8 9 10 8 8 6 8 9 7 6 4 3 1 0 2 2 4 2 3
26 26 27 28 28 26 26 25 24 25 27 26 26 24 21 17 16 14 12 12 10 9 9 7 8 8 11 10 9 8 6 9 8 8 7 5 4 2 1 1 1 1 2
24 24 24 26 27 28 27 26 24 22 24 27 27 27 25 21 16 16 14 13 12 10 11 9 9 10 10 9 9 7 9 10 8 9 11 7 8 6 4 3 2 1 3
5 20 21 22 24 25 26 25 25 25 24 24 26 26 27 24 21 19 18 15 14 13 12 13 12 10 10 11 9 8 8 8 8 8 11 10 10 10 8 7 6 5 5
10 1 12 19 20 21 23 24 24 24 23 25 25 26 26 26 24 21 19 20 17 16 16 16 15 13 12 12 13 11 9 8 9 10 11 11 13 11 11 10 10 9 9
20 14 7 2 14 18 19 20 19 20 20 21 24 26 29 26 23 25 21 19 19 18 17 17 16 14 14 15 14 12 11 11 10 9 11 11 11 16 15 12 13 12 12
23 20 11 13 11 8 11 14 16 17 16 17 20 23 24 25 29 26 24 22 20 20 20 19 19 17 16 17 17 16 15 15 14 13 12 12 12 14 13 13 13 12 12
20 20 22 20 13 6 7 8 5 10 12 16 15 18 21 24 27 32 29 27 24 22 22 24 21 19 19 18 19 18 19 16 15 14 15 14 14 15 14 14 14 14 14
20 20 21 22 20 14 7 3 7 4 6 11 16 18 18 19 21 27 32 32 30 28 25 24 26 26 22 21 20 20 20 20 19 17 16 16 16 15 15 14 15 15 15
17 18 18 18 19 19 16 11 2 8 11 11 15 15 16 17 19 23 28 28 29 31 31 30 28 27 26 26 27 26 21 21 20 20 19 19 21 19 18 17 17 19 18
16 17 16 17 17 18 18 17 12 3 4 5 9 17 18 17 18 19 21 27 30 28 30 32 32 32 32 30 32 33 32 26 24 23 22 22 22 24 24 22 21 22 22
14 15 15 16 16 15 17 17 16 14 6 4 6 6 9 16 19 22 22 22 22 25 29 31 33 34 34 34 33 32 34 37 37 33 29 27 26 25 24 23 23 24 24
12 12 14 15 15 16 17 17 17 16 16 12 8 9 13 13 13 18 23 23 21 22 24 26 30 32 35 35 35 34 35 36 40 41 42 40 37 36 34 33 30 27 28
11 13 14 14 14 16 17 17 16 16 16 17 16 14 9 13 15 17 17 23 24 24 23 23 25 28 33 35 36 36 36 31 33 36 40 43 45 43 42 40 38 38 38
12 13 13 13 14 16 17 17 17 16 17 18 17 16 15 12 13 22 20 22 22 22 23 24 25 26 28 32 33 33 35 38 33 33 33 32 36 39 40 43 45 46 41
13 13 15 15 14 16 17 17 17 17 18 19 20 19 18 16 14 14 18 20 19 23 23 25 28 26 28 30 33 34 35 35 34 35 32 31 34 37 38 37 40 39 39
14 14 15 17 17 16 16 20 20 21 20 21 20 21 21 20 18 16 15 14 16 13 18 21 24 27 26 25 28 31 33 35 37 38 34 32 33 34 35 35 35 32 33
13 14 15 15 17 17 18 19 22 22 21 21 22 21 21 22 20 18 15 15 16 14 14 14 20 23 25 25 25 26 27 30 36 41 41 39 38 35 31 31 33 34 35
13 13 12 12 15 17 19 18 18 20 22 23 22 22 21 20 21 20 17 19 18 18 21 19 18 22 27 24 27 23 22 27 28 34 39 37 35 34 31 29 28 27 26
14 15 14 14 15 17 17 19 20 19 17 19 22 22 23 22 21 22 23 23 26 25 24 26 23 22 32 29 31 30 32 29 31 30 26 29 30 31 30 29 29 28 30

GFSMW_850_spd_084.txt.gz
Wind_Speed
26 23 23 23 22 21 21 19 20 22 16 17 14 12 8 9 8 5 7 3 7 5 10 8 8 8 8 9 4 7 4 4 2 4 4 2 6 8 3 2 10 7 8
26 25 24 24 23 24 23 23 21 21 18 17 16 10 10 9 7 6 4 8 5 7 8 10 7 3 8 5 8 9 5 3 4 6 5 2 6 3 6 3 5 1 1
30 27 26 26 26 26 25 25 21 20 23 14 12 11 11 11 14 7 4 10 5 5 6 9 8 8 8 6 7 4 1 7 5 11 6 5 4 3 4 8 5 8 4
29 32 29 24 28 27 25 26 24 20 24 17 15 13 12 11 10 5 13 7 7 6 5 9 5 7 5 10 7 1 8 2 4 2 7 8 5 8 5 5 3 7 5
32 27 31 29 28 27 26 25 26 21 25 24 17 17 18 10 7 14 14 9 7 9 9 6 7 8 8 12 6 8 6 4 6 6 1 5 2 2 7 10 6 5 4
25 36 31 30 27 29 28 25 27 23 23 24 20 17 13 10 14 14 12 7 5 6 8 9 8 8 10 13 9 10 11 8 3 3 3 3 7 7 10 8 0 9 5
21 28 33 29 30 32 31 25 24 23 23 22 23 21 17 12 8 8 8 13 7 13 12 4 6 8 11 8 8 8 10 12 8 8 6 4 2 5 4 3 12 6 3
25 30 36 32 31 36 34 27 24 23 22 20 21 20 17 16 12 8 10 4 6 6 12 7 5 9 8 11 12 7 6 7 9 13 12 9 4 2 4 7 8 6 9
39 34 30 38 35 37 36 31 24 23 24 22 19 17 15 12 13 11 12 13 7 4 7 6 6 6 10 8 8 7 7 6 8 8 10 12 8 4 6 8 6 8 10
13 18 21 18 38 30 35 34 26 22 21 23 21 20 18 15 18 16 15 11 6 6 6 10 12 5 6 8 9 7 6 8 9 5 7 10 16 10 4 9 8 8 10
18 12 6 1 18 23 27 32 30 24 22 22 23 20 18 18 18 22 19 20 18 8 8 10 14 9 9 11 9 9 9 11 9 13 11 12 14 17 8 8 13 13 12
15 16 13 27 5 9 10 17 29 26 25 24 25 25 21 17 17 17 19 16 14 20 21 10 12 15 14 13 13 9 9 11 7 6 11 11 11 12 20 14 12 8 14
20 17 22 20 17 6 13 13 11 14 20 28 24 23 21 23 21 20 17 18 16 13 17 18 19 21 19 15 16 13 10 14 14 12 13 10 11 16 15 15 17 16 14
22 20 18 18 14 8 9 10 4 15 8 9 14 25 22 21 23 23 21 19 19 17 15 16 18 20 17 16 15 15 16 15 17 16 15 15 16 16 17 17 20 21 21
23 22 23 22 11 5 6 8 9 5 3 10 14 18 18 17 17 18 22 21 20 21 20 19 18 22 21 18 19 19 19 19 17 19 18 18 18 16 20 21 18 17 17
22 21 21 21 22 15 2 4 16 13 11 8 2 7 16 7 15 18 17 20 23 21 22 22 22 21 23 21 20 22 20 22 21 21 19 22 22 19 21 23 21 20 24
19 19 19 19 18 17 18 14 6 7 12 19 14 8 7 11 10 11 16 17 19 26 25 24 25 26 26 25 24 25 27 28 25 24 25 25 23 20 23 24 23 22 23
16 16 15 15 15 14 15 16 17 15 13 2 4 7 8 8 11 16 16 15 17 19 20 28 29 28 32 30 28 28 30 31 34 34 31 28 29 24 26 23 27 28 28
12 12 11 11 11 12 11 13 11 10 10 12 12 11 5 6 10 14 17 20 20 21 23 23 25 29 33 32 30 29 30 34 37 38 38 37 38 36 33 33 35 34 32
8 8 8 7 8 9 8 9 8 6 6 6 9 11 9 8 6 8 12 15 19 18 23 23 26 28 31 32 31 30 33 35 36 37 39 40 41 41 38 41 40 43 44
5 5 5 5 6 7 8 7 7 6 7 7 6 5 10 9 9 12 10 11 14 19 22 23 21 22 27 30 33 32 30 31 34 37 38 36 37 37 33 32 35 41 42
4 4 3 3 4 5 5 6 6 7 9 10 12 10 8 11 11 13 14 13 11 13 13 17 22 22 22 22 24 28 32 30 32 33 33 34 30 30 37 37 39 37 34
4 4 3 3 2 4 6 7 9 11 14 14 11 11 16 13 13 16 15 14 11 12 15 16 13 14 18 15 21 22 25 31 34 34 36 38 35 38 40 38 33 33 38
3 3 3 3 4 4 5 6 9 11 13 12 13 15 10 13 14 16 12 14 12 13 14 15 17 16 20 19 20 15 14 17 25 29 34 37 39 39 37 40 42 41 39
3 1 1 2 4 6 7 8 8 10 13 13 12 14 14 15 12 11 15 16 18 19 21 23 25 27 27 24 23 23 25 29 28 28 29 25 22 29 33 30 30 37 47
3 3 2 1 4 6 8 10 9 12 13 15 15 15 15 15 17 19 21 21 19 22 24 25 25 27 27 26 26 26 26 26 28 31 31 32 31 32 30 30 28 31 35

GFSMW_850_spd_087.txt.gz
Wind_Speed
29 26 25 26 22 21 20 20 18 21 20 20 16 14 13 12 15 11 7 4 11 9 10 9 8 8 8 8 8 9 5 5 4 3 1 4 5 5 4 5 5 4 5
34 28 28 31 28 24 23 22 22 22 22 19 17 15 12 11 8 9 5 9 7 6 11 10 11 7 11 10 4 3 5 7 7 1 2 2 4 4 5 3 4 3 4
36 31 31 32 29 25 25 22 24 23 22 23 16 9 12 15 13 10 9 10 6 9 9 11 8 6 9 10 10 6 4 6 7 9 6 5 4 7 5 7 6 8 4
35 34 32 33 31 27 25 31 25 22 23 23 15 13 13 18 17 9 10 9 8 6 6 10 9 10 10 11 7 5 4 4 3 3 5 7 6 3 4 8 2 7 5
12 37 33 35 34 30 27 29 29 24 26 22 17 17 16 12 13 13 13 9 10 8 6 7 10 11 8 13 9 4 5 5 4 3 4 4 4 4 6 7 6 6 5
20 19 34 27 35 32 28 29 29 26 30 25 23 20 18 14 8 15 17 8 8 11 9 8 9 8 11 12 11 6 8 8 4 1 2 4 7 8 8 6 4 7 5
26 14 24 26 29 34 29 27 29 27 30 28 26 22 19 16 15 16 14 12 9 9 10 10 9 6 11 11 12 9 10 11 9 6 5 2 1 5 7 8 10 2 2
34 31 21 23 24 35 30 26 29 27 28 32 28 22 22 15 14 14 8 9 8 11 10 7 9 9 12 12 10 8 10 11 13 12 10 8 4 0 2 6 6 9 5
38 42 32 24 20 37 34 27 28 25 26 28 28 25 22 19 15 11 11 8 7 7 5 11 7 10 9 8 8 9 7 7 7 11 14 14 10 5 4 3 4 7 9
34 33 45 29 19 30 39 30 28 27 25 26 25 24 22 20 17 20 14 13 12 12 8 13 8 9 9 7 8 8 9 9 7 6 10 15 14 12 7 6 5 4 7
16 28 31 26 13 14 25 37 32 28 25 24 23 22 22 20 19 20 20 16 16 11 11 7 12 10 11 4 4 9 11 10 10 9 10 9 14 16 15 10 12 11 10
14 19 27 24 21 22 9 27 21 26 26 24 24 23 20 18 20 23 21 22 23 18 17 12 10 16 12 10 13 11 10 12 8 6 11 14 10 16 18 17 14 13 12
15 19 20 20 24 26 13 14 14 11 22 24 22 21 19 19 18 20 22 22 21 21 23 21 19 18 15 16 16 15 12 15 13 11 9 8 10 11 12 15 20 21 19
19 23 22 19 18 22 25 8 13 27 11 21 25 23 24 23 22 19 17 17 18 19 18 18 19 21 20 18 18 18 14 14 15 16 17 16 13 12 11 12 13 17 23
21 20 20 18 16 13 11 13 13 14 12 10 22 21 17 16 19 23 21 20 21 18 17 17 18 18 18 17 16 17 18 18 16 16 19 19 17 14 15 16 16 16 16
22 22 24 22 16 10 7 8 8 9 4 2 4 13 18 20 17 20 20 21 19 20 20 20 19 19 22 20 18 14 14 17 18 18 18 19 20 19 18 20 21 20 20
23 23 23 24 23 23 18 20 14 5 8 7 8 5 9 19 25 18 20 21 21 23 21 20 22 23 22 21 23 22 24 24 25 25 25 23 22 22 23 23 23 24 25
20 20 22 20 18 19 21 21 21 18 16 7 2 2 3 5 9 15 15 11 13 17 21 24 27 25 24 24 25 22 24 29 27 26 28 28 28 27 25 24 26 28 28
18 15 12 17 16 17 17 16 13 11 14 14 11 8 6 3 2 5 8 13 14 16 17 20 20 21 24 25 26 25 25 27 28 32 34 34 34 34 33 34 35 35 35
15 14 12 9 9 11 11 10 6 3 5 6 6 5 5 5 5 4 5 5 9 12 17 18 22 21 23 24 24 25 24 26 28 32 33 33 35 37 36 38 39 42 40
12 10 7 9 6 4 3 3 1 1 2 2 1 1 3 3 2 5 7 8 7 6 7 9 13 18 16 20 20 22 23 27 30 30 30 28 28 30 31 30 30 32 31
12 9 7 5 4 3 3 2 2 5 8 8 7 7 7 6 7 8 7 8 7 7 9 11 10 6 8 13 16 16 17 21 26 29 31 33 32 32 30 29 29 31 34
12 11 7 5 4 4 4 3 4 8 10 11 9 9 8 6 5 6 8 8 10 9 11 5 4 7 12 15 17 16 19 18 18 22 30 36 34 36 40 37 36 38 37
9 6 6 3 5 5 4 4 6 8 10 10 8 5 4 8 5 4 3 6 5 9 14 16 17 19 20 20 21 19 18 20 23 24 25 26 28 31 34 34 38 40 38
4 4 5 4 4 4 4 4 5 6 6 6 6 6 8 8 9 9 9 9 8 8 13 15 17 21 24 22 22 24 23 23 23 25 27 28 30 33 32 32 32 30 31
7 6 4 5 3 1 6 6 4 7 8 9 11 13 13 13 11 12 13 17 20 20 19 16 17 19 23 25 22 21 24 25 26 29 28 29 28 30 31 32 32 31 30